TimeCDT,TemperatureF,Dew PointF,Humidity,Sea Level PressureIn,VisibilityMPH,Wind Direction,Wind SpeedMPH,Gust SpeedMPH,PrecipitationIn,Events,Conditions,WindDirDegrees,DateUTC
12:54 AM,53.1,45.0,74,30.15,10.0,SSW,8.1,-,N/A,,Clear,210,2013-04-27 05:54:00
1:54 AM,51.1,44.1,77,30.15,10.0,SSW,5.8,-,N/A,,Clear,200,2013-04-27 06:54:00
2:54 AM,51.1,44.1,77,30.14,10.0,South,3.5,-,N/A,,Clear,170,2013-04-27 07:54:00
3:54 AM,48.9,43.0,80,30.14,10.0,South,5.8,-,N/A,,Clear,170,2013-04-27 08:54:00
4:54 AM,46.9,42.1,83,30.14,10.0,Calm,Calm,-,N/A,,Clear,0,2013-04-27 09:54:00
5:54 AM,46.0,42.1,86,30.15,10.0,Calm,Calm,-,N/A,,Clear,0,2013-04-27 10:54:00
6:54 AM,46.9,43.0,86,30.16,10.0,Calm,Calm,-,N/A,,Clear,0,2013-04-27 11:54:00
7:54 AM,50.0,45.0,83,30.17,10.0,Variable,4.6,-,N/A,,Clear,0,2013-04-27 12:54:00
8:54 AM,54.0,46.0,75,30.17,10.0,SSW,8.1,-,N/A,,Clear,200,2013-04-27 13:54:00
9:54 AM,59.0,46.9,64,30.15,10.0,South,5.8,-,N/A,,Clear,170,2013-04-27 14:54:00
10:54 AM,61.0,46.9,60,30.13,10.0,South,6.9,-,N/A,,Clear,180,2013-04-27 15:54:00
11:54 AM,64.9,46.9,52,30.12,10.0,South,6.9,-,N/A,,Clear,170,2013-04-27 16:54:00
12:54 PM,66.9,46.9,49,30.11,10.0,South,10.4,-,N/A,,Clear,180,2013-04-27 17:54:00
1:54 PM,69.1,46.0,44,30.09,10.0,SSW,8.1,-,N/A,,Scattered Clouds,200,2013-04-27 18:54:00
2:54 PM,68.0,45.0,43,30.07,10.0,South,8.1,-,N/A,,Scattered Clouds,180,2013-04-27 19:54:00
3:54 PM,68.0,45.0,43,30.04,10.0,SSW,10.4,16.1,N/A,,Scattered Clouds,200,2013-04-27 20:54:00
4:54 PM,68.0,42.1,39,30.02,10.0,SSW,8.1,-,N/A,,Overcast,200,2013-04-27 21:54:00
5:54 PM,66.9,43.0,42,30.01,10.0,South,13.8,20.7,N/A,,Mostly Cloudy,190,2013-04-27 22:54:00
6:54 PM,64.9,44.1,47,30.00,10.0,South,10.4,-,N/A,,Overcast,190,2013-04-27 23:54:00
7:54 PM,61.0,44.1,54,30.01,10.0,SSE,6.9,-,N/A,,Partly Cloudy,160,2013-04-28 00:54:00
8:54 PM,57.9,44.1,60,30.01,10.0,South,6.9,-,N/A,,Clear,170,2013-04-28 01:54:00
9:54 PM,55.9,44.1,64,30.01,10.0,South,5.8,-,N/A,,Clear,170,2013-04-28 02:54:00
10:54 PM,54.0,43.0,66,30.01,10.0,South,6.9,-,N/A,,Clear,180,2013-04-28 03:54:00
11:54 PM,53.1,43.0,69,30.00,10.0,South,5.8,-,N/A,,Clear,180,2013-04-28 04:54:00